Weather History for Mayport NS, FL

Change the Weather History Date:

Sunday, September 29, 2013

  Actual Average Record
Temperature  
Mean Temperature 76 °F -  
Max Temperature 80 °F 81 °F 90 °F (1996)
Min Temperature 72 °F 71 °F 66 °F (2006)
Cooling Degree Days 11    
Growing Degree Days 26 (Base 50)    
Moisture  
Dew Point 67 °F    
Average Humidity 75    
Maximum Humidity 87    
Minimum Humidity 66    
Precipitation  
Precipitation 0.00 in - - ()
Sea Level Pressure  
Sea Level Pressure 30.01 in    
Wind  
Wind Speed 15 mph (NE)    
Max Wind Speed 20 mph    
Max Gust Speed 24 mph    
Visibility 10 miles    
Events      
Averages and records for this station are not official NWS values.
T = Trace of Precipitation, MM = Missing Value Source: NWS Daily Summary

Daily Weather History Graph

Daily Weather History Graph

Search for Another Location

Airport:

Trip Planner

Search our weather history database for the weather conditions in past years. The results will help you decide how hot, cold, wet, or windy it might be!

Date:

Astronomy

Sep. 29, 2013 Rise Set
Actual Time 7:18 AM EDT 7:13 PM EDT
Civil Twilight 6:54 AM EDT 7:37 PM EDT
Nautical Twilight 6:26 AM EDT 8:04 PM EDT
Astronomical Twilight 5:58 AM EDT 8:32 PM EDT
Moon 2:17 AM EDT (9/29) 3:51 PM EDT (9/29)
Length of Visible Light 12h 42m
Length of Day
11h 55m
Waning Crescent, 27% of the Moon is Illuminated
Sep 29
Waning Crescent
Oct 4
New
Oct 11
First Quarter
Oct 18
Full
Oct 26
Last Quarter

Hourly Weather History & Observations

Time (EDT) Temp. Heat Index Dew Point Humidity Pressure Visibility Wind Dir Wind Speed Gust Speed Precip Events Conditions
12:52 AM 75.0 °F - 68.0 °F 79% 30.02 in 10.0 mi NE 19.6 mph - N/A   Mostly Cloudy
1:52 AM 75.0 °F - 69.1 °F 82% 30.01 in 10.0 mi NE 16.1 mph - N/A   Mostly Cloudy
2:52 AM 73.0 °F - 66.9 °F 81% 30.01 in 9.0 mi ENE 15.0 mph - N/A   Overcast
3:42 AM 72.0 °F - 68.0 °F 87% 30.00 in 10.0 mi ENE 6.9 mph - N/A   Overcast
3:52 AM 73.0 °F - 69.1 °F 87% 30.00 in 10.0 mi East 8.1 mph - N/A   Overcast
4:52 AM 73.9 °F - 69.1 °F 85% 29.99 in 10.0 mi NE 12.7 mph - N/A   Overcast
5:19 AM 75.0 °F - 66.9 °F 76% 30.00 in 10.0 mi NE 16.1 mph 21.9 mph N/A   Overcast
5:28 AM 75.0 °F - 66.9 °F 76% 30.00 in 10.0 mi NE 12.7 mph - N/A   Overcast
5:52 AM 75.0 °F - 66.9 °F 76% 30.00 in 10.0 mi NNE 16.1 mph - N/A   Overcast
6:05 AM 75.0 °F - 66.9 °F 76% 30.01 in 10.0 mi NNE 16.1 mph - N/A   Overcast
6:50 AM 75.2 °F - 66.2 °F 73% 30.02 in 10.0 mi NE 15.0 mph 23.0 mph N/A   Overcast
6:52 AM 75.0 °F - 66.0 °F 73% 30.02 in 10.0 mi NE 17.3 mph - N/A   Overcast
6:59 AM 75.0 °F - 66.0 °F 73% 30.02 in 10.0 mi NNE 13.8 mph - N/A   Mostly Cloudy
7:52 AM 75.0 °F - 68.0 °F 79% 30.02 in 10.0 mi NE 13.8 mph - N/A   Overcast
8:52 AM 75.9 °F - 66.9 °F 74% 30.03 in 10.0 mi NNE 15.0 mph 21.9 mph N/A   Scattered Clouds
9:52 AM 77.0 °F - 68.0 °F 74% 30.04 in 10.0 mi NNE 15.0 mph - N/A   Scattered Clouds
10:52 AM 78.1 °F - 68.0 °F 71% 30.04 in 10.0 mi NNE 16.1 mph - N/A   Mostly Cloudy
11:52 AM 78.1 °F - 69.1 °F 74% 30.04 in 10.0 mi NNE 16.1 mph - N/A   Mostly Cloudy
12:44 PM 78.1 °F - 69.1 °F 74% 30.04 in 10.0 mi NNE 18.4 mph 24.2 mph N/A   Mostly Cloudy
12:52 PM 79.0 °F - 69.1 °F 72% 30.04 in 10.0 mi NNE 18.4 mph 24.2 mph N/A   Mostly Cloudy
1:41 PM 79.0 °F - 68.0 °F 69% 30.02 in 10.0 mi NNE 17.3 mph - N/A   Mostly Cloudy
1:52 PM 79.0 °F - 66.9 °F 66% 30.01 in 10.0 mi NNE 17.3 mph 24.2 mph N/A   Mostly Cloudy
2:52 PM 80.1 °F 82.7 °F 68.0 °F 67% 30.00 in 10.0 mi NNE 13.8 mph 23.0 mph N/A   Mostly Cloudy
3:52 PM 78.1 °F - 68.0 °F 71% 29.99 in 10.0 mi NNE 16.1 mph - N/A   Mostly Cloudy
4:52 PM 77.0 °F - 66.0 °F 69% 29.98 in 10.0 mi NNE 15.0 mph - N/A   Mostly Cloudy
5:52 PM 75.9 °F - 64.9 °F 69% 29.98 in 10.0 mi NE 15.0 mph 23.0 mph N/A   Mostly Cloudy
6:52 PM 75.0 °F - 64.9 °F 71% 29.99 in 10.0 mi NE 13.8 mph - N/A   Mostly Cloudy
7:52 PM 73.9 °F - 64.9 °F 73% 29.99 in 10.0 mi NE 15.0 mph - N/A   Mostly Cloudy
8:52 PM 73.9 °F - 64.9 °F 73% 30.00 in 10.0 mi NE 15.0 mph - N/A   Scattered Clouds
9:52 PM 73.9 °F - 64.9 °F 73% 30.01 in 10.0 mi ENE 13.8 mph - N/A   Partly Cloudy
10:52 PM 73.9 °F - 66.0 °F 76% 30.01 in 10.0 mi ENE 11.5 mph - N/A   Partly Cloudy
11:52 PM 73.0 °F - 66.0 °F 79% 30.01 in 10.0 mi NE 11.5 mph - N/A   Clear